[Date Prev][Date Next][Thread Prev][Thread Next] - [Date Index][Thread Index][Author Index]

2 Line ISS Keps 1-10



ISS 
1 25544U 98067A   05010.25354257  .00026609  00000-0  19792-3 0  5551
2 25544  51.6400 348.4071 0003261 184.2468 263.0098 15.72614226350855
----
Via the sarex mailing list at AMSAT.ORG courtesy of AMSAT-NA.
To unsubscribe, send "unsubscribe sarex" to Majordomo@amsat.org



AMSAT Top AMSAT Home